This is the latest recevied weather packets stored in our database for station/object WA0LM. If no packets are shown the sender has not sent any weather packets the latest 10 day(s).
| Time | Temp. | Humidity | Pressure | Rain* | Wind** | Luminosity | Snow |
|---|---|---|---|---|---|---|---|
| 1777460705 | 0° C | 78% | 1017.7 hPa | 0 mm | - | 2 W/m² | - |
| 1777460400 | 0° C | 79% | 1017.7 hPa | 0 mm | - | 1 W/m² | - |
| 1777460096 | 0° C | 80% | 1017.5 hPa | 0 mm | - | 0 W/m² | - |
| 1777459794 | 0° C | 79% | 1017.3 hPa | 0 mm | - | 0 W/m² | - |
| 1777459491 | 0° C | 80% | 1017.5 hPa | 0 mm | - | 0 W/m² | - |
| 1777459189 | 0° C | 80% | 1017.5 hPa | 0 mm | - | 0 W/m² | - |
| 1777458886 | 0° C | 81% | 1017.4 hPa | 0 mm | - | 0 W/m² | - |
| 1777458582 | 0° C | 80% | 1017.5 hPa | 0 mm | - | 0 W/m² | - |
| 1777458279 | 0° C | 82% | 1017.4 hPa | 0 mm | - | 0 W/m² | - |
| 1777457974 | 0° C | 82% | 1017.4 hPa | 0 mm | - | 0 W/m² | - |
| 1777457671 | 0° C | 83% | 1017.4 hPa | 0 mm | - | 0 W/m² | - |
| 1777457370 | 0° C | 82% | 1017.3 hPa | 0 mm | - | 0 W/m² | - |
| 1777457066 | 0° C | 83% | 1017.2 hPa | 0 mm | - | 0 W/m² | - |
| 1777456762 | 0.56° C | 80% | 1017.1 hPa | 0 mm | - | 0 W/m² | - |
| 1777456461 | 0.56° C | 78% | 1017.1 hPa | 0 mm | - | 0 W/m² | - |
| 1777456159 | 0° C | 79% | 1017.1 hPa | 0 mm | - | 0 W/m² | - |
| 1777455854 | 0.56° C | 77% | 1016.9 hPa | 0 mm | - | 0 W/m² | - |
| 1777455551 | 0.56° C | 75% | 1017 hPa | 0 mm | - | 0 W/m² | - |
| 1777455248 | 0.56° C | 76% | 1016.9 hPa | 0 mm | - | 0 W/m² | - |
| 1777454944 | 1.11° C | 77% | 1017 hPa | 0 mm | - | 0 W/m² | - |
| 1777454641 | 1.11° C | 78% | 1016.9 hPa | 0 mm | - | 0 W/m² | - |
| 1777454337 | 0.56° C | 76% | 1016.9 hPa | 0 mm | - | 0 W/m² | - |
| 1777454034 | 1.11° C | 76% | 1017 hPa | 0 mm | - | 0 W/m² | - |
| 1777453731 | 1.11° C | 76% | 1016.7 hPa | 0 mm | - | 0 W/m² | - |
| 1777453428 | 1.11° C | 75% | 1016.7 hPa | 0 mm | - | 0 W/m² | - |
* Rain latest hour (hover to see other rain measurements)
** Current wind speed in m/s (hover to see current wind gust speed)